星链-31771 (STARLINK-31771 )

导读 | 豆包AI

STARLINK-31771是美国太空探索技术公司SpaceX星链Starlink星座中的一颗低轨通信卫星,于北京时间2024年4月28日发射入轨。星链星座依托海量低轨卫星,为全球提供高速低延迟宽带互联网服务,该卫星搭载激光通信终端,可实现星间高速互联,助力全球覆盖的卫星互联网组网。目前它已进入预定轨道运行,成为星链全球通信网络的组成部分。

基本信息
目录编号:
59620
目录名称:
STARLINK-31771
国际标识:
2024-080V
轨道中心:
EARTH
卫星名称:
星链-31771
卫星全名:
星链-31771 (STARLINK-31771 )
卫星状态:
已陨落 最后检测时间 2025-12-24
发射日期:
2024-04-28 UTC
国别 :
美国 (US)
星等 :
--
轨道信息
数据来源 国际轨道数据
星历时间: 2025-12-24T00:19:51+0800
轨道信息已过期82天
半长轴: 6620.965km
偏心率: 0.0018449
轨道倾角: 42.974°
近地点辐角 31.292°
升交点赤经 75.750°
平近点角 328.905°
近地点: 230.612km
远地点: 255.044km
周期: 89.360分钟
每日圈数: 16.11465
详细信息
固有亮度:
5
最大亮度:
1.5
卫星平台:
Starlink v2.0 mini
覆盖范围:
全球
运营商:
太空探索技术公司
运营商所在国:
美国
制造商(研发单位):
太空探索技术公司
制造商所在国:
美国
使用方式:
暂无
卫星简介
星链(Starlink)计划是由太空探索技术公司(SpaceX)提出的一个巨型低轨卫星互联网星座项目,计划在2019年至2024年间在太空搭建由约1.2万颗卫星组成的“星链”网络,其中1584颗将部署在地球上空550千米处的近地轨道,并从2020年开始工作。该卫星仍在工作。